Theta_e
316 320 320 320 321 319 316 314 313 315 316 317 318 319 322 322 321 319 318 320 318 317 321 321 318 319 318 318 316 315 315 315 315 315 314 313 311 311 310 308 307 306 305 304 303 303 303 303 303 304 304 304 305 306 307 308 308 309 310 311 311 313 315 317 319 321 321 321 321 321 321 321 321 321 322 322 322 322 322 321 321 321 321 320 320 319
316 320 322 320 319 318 317 315 314 315 316 316 318 321 324 324 321 318 318 318 316 317 322 322 318 319 318 316 316 315 315 315 315 315 314 312 311 309 308 307 306 305 304 303 302 302 302 302 302 302 302 303 303 304 305 305 306 307 308 308 309 309 311 313 315 318 318 318 318 318 318 319 319 319 319 320 320 320 320 319 319 319 318 318 318 317
317 319 319 317 316 317 317 317 317 318 319 320 321 321 323 323 321 323 322 319 316 317 323 324 318 318 318 316 316 315 314 313 313 314 312 310 310 308 307 306 305 304 304 303 302 301 301 301 301 301 301 301 301 302 303 304 304 305 306 306 307 307 307 308 310 312 313 314 315 315 315 316 317 317 317 317 317 317 317 317 317 317 316 316 315 315
321 320 318 315 315 317 317 319 319 319 321 323 323 321 324 322 320 325 325 320 317 317 320 320 318 319 318 317 317 314 312 312 311 311 310 309 308 307 306 305 304 304 303 302 302 301 300 301 301 301 301 301 301 301 301 302 302 303 304 305 305 306 306 306 308 309 309 310 310 310 311 312 312 312 313 314 314 314 314 315 315 315 315 315 314 314
322 321 318 317 318 319 320 321 321 320 324 328 326 323 323 322 321 323 323 321 320 323 323 319 321 327 322 317 318 314 311 311 310 309 309 308 307 306 305 305 304 303 303 302 301 301 300 300 300 300 300 300 300 300 300 300 300 301 302 303 304 304 305 305 306 306 307 307 307 307 307 307 308 308 308 308 308 309 310 310 311 311 312 312 312 312
320 319 320 320 320 321 322 323 325 324 324 328 329 325 323 323 323 323 324 324 323 326 326 318 324 333 327 320 321 315 311 311 310 309 308 307 307 306 305 304 303 303 302 301 301 300 299 299 299 299 299 299 299 299 300 299 299 300 300 301 302 303 304 304 304 305 305 305 305 305 305 305 305 305 305 305 305 305 307 307 308 308 308 308 309 309
321 319 322 324 323 322 322 324 327 326 323 325 328 327 325 323 322 323 323 323 325 327 322 316 323 328 324 322 323 317 312 311 310 309 308 307 306 305 304 304 303 302 301 301 300 299 298 298 297 298 298 298 298 299 299 299 299 299 299 300 300 301 302 303 303 304 304 304 304 304 304 304 304 304 304 304 304 304 305 306 306 306 305 305 305 305
322 320 321 322 323 323 323 325 327 325 324 328 327 323 323 321 320 322 319 319 325 324 320 318 318 321 322 322 320 316 314 311 309 308 307 306 305 304 303 303 302 301 301 300 299 298 297 296 296 296 297 297 297 297 297 298 298 298 299 299 299 299 300 300 301 302 302 302 302 302 303 302 302 302 303 303 304 304 304 304 304 305 304 304 303 303
321 321 324 323 322 324 327 330 328 323 325 329 324 318 320 318 318 320 317 320 323 320 321 322 317 319 326 328 319 315 315 312 310 309 306 305 304 303 303 302 301 300 300 300 299 297 296 296 295 295 295 296 296 296 296 296 297 297 298 298 299 298 298 299 299 299 300 300 300 300 301 301 301 301 302 302 302 302 303 303 303 303 303 303 303 303
321 320 325 327 324 324 329 331 328 325 323 324 320 319 323 320 319 318 316 319 319 319 323 324 319 320 327 334 324 315 316 314 310 308 305 305 304 303 303 302 301 300 299 299 297 296 295 295 294 294 294 294 294 295 295 295 296 296 297 297 298 297 297 298 298 298 298 299 299 299 299 299 299 300 300 300 300 301 301 301 301 301 302 302 302 302
319 314 317 323 322 323 327 323 321 323 320 319 320 323 326 324 322 320 320 321 319 322 326 324 322 319 324 336 327 316 316 313 309 307 305 304 303 302 302 300 300 299 298 298 296 295 294 294 293 293 293 293 293 294 294 294 294 295 295 296 296 296 296 297 297 298 298 298 298 298 298 298 298 298 298 298 298 298 299 299 299 300 300 300 300 301
318 314 317 322 320 320 321 318 319 321 318 319 324 323 322 326 327 322 322 324 321 326 332 326 322 318 322 330 320 312 314 311 309 307 304 303 302 301 301 299 299 298 297 297 296 295 293 293 293 292 292 292 292 293 293 293 293 293 294 294 294 294 294 295 295 296 296 297 297 297 297 297 297 297 296 297 297 297 297 297 298 298 299 299 299 299
322 322 320 319 318 317 318 320 322 322 318 319 323 320 319 325 327 325 325 324 323 328 330 325 321 320 323 323 314 309 310 309 308 305 303 302 301 300 300 299 298 297 297 296 295 295 293 292 292 292 292 291 291 292 292 292 291 291 292 292 293 293 292 292 293 293 294 294 295 295 296 296 296 296 296 295 295 295 296 296 296 296 296 297 297 298
325 325 320 317 318 318 319 320 322 324 319 316 319 321 322 325 325 326 326 321 321 326 324 319 317 322 326 318 309 306 304 304 304 303 302 301 300 299 299 298 298 297 297 296 295 295 293 292 292 292 292 291 291 291 291 291 290 290 291 291 291 292 291 291 290 290 291 291 291 292 293 293 293 293 294 294 294 294 294 295 295 295 295 295 295 295
324 325 323 321 321 319 318 317 322 329 323 316 320 323 324 327 324 321 321 319 322 327 325 319 318 325 327 314 305 304 302 301 301 301 301 300 299 299 298 298 298 297 297 296 295 295 292 291 292 292 292 292 291 291 290 290 290 289 289 289 289 290 290 290 289 289 289 288 288 288 289 289 289 289 290 290 291 291 291 291 292 293 293 294 294 295
321 323 324 320 317 317 317 318 321 326 323 318 319 320 322 327 324 320 321 321 322 325 323 321 323 322 317 308 304 303 302 301 301 300 300 300 299 299 299 298 298 297 296 296 296 295 292 291 292 292 292 292 292 291 290 289 289 288 288 288 288 288 288 288 288 288 288 287 287 287 287 287 287 287 287 287 287 287 287 287 288 289 289 290 291 293
320 323 321 316 316 316 317 320 318 318 323 321 317 322 327 325 321 320 324 322 318 320 320 319 321 316 310 308 305 303 303 302 302 301 300 301 300 300 299 299 298 297 296 296 296 294 292 291 291 291 291 292 292 292 291 290 289 288 288 288 288 288 288 288 287 287 287 287 286 286 286 286 286 286 286 286 286 286 286 286 286 286 286 287 288 288
321 323 322 318 319 317 312 315 317 316 320 321 319 324 324 320 318 320 323 323 320 320 320 317 319 316 314 314 307 303 305 303 301 301 301 300 301 300 300 299 298 298 297 296 295 293 292 291 291 291 291 291 292 292 292 291 289 288 288 287 287 287 287 287 287 287 287 287 287 286 286 286 286 286 286 286 286 286 286 286 286 286 285 286 286 286
322 321 322 319 318 318 313 315 320 317 314 318 321 321 318 319 322 322 321 322 321 319 320 320 319 318 317 316 310 305 306 304 302 302 302 301 301 300 300 299 298 298 297 297 297 294 292 291 291 290 290 291 292 292 292 290 289 288 288 288 287 287 287 287 287 287 287 287 287 287 287 287 287 287 286 286 286 286 286 286 286 286 286 286 286 286
323 321 321 319 316 318 318 318 322 319 314 316 319 318 318 319 321 321 319 321 322 319 319 319 319 322 323 319 312 307 305 304 303 303 303 303 302 301 300 299 299 299 298 297 297 295 293 291 291 291 290 291 291 291 291 290 290 289 288 288 288 288 288 288 288 288 288 288 288 288 288 287 287 287 287 287 287 287 287 287 287 287 287 287 287 286
322 320 321 322 318 317 320 320 323 323 318 317 319 318 318 317 318 319 317 317 320 320 319 318 318 324 324 315 310 307 304 303 304 304 305 304 303 302 301 300 300 299 299 297 297 295 292 292 292 291 291 291 290 290 291 290 290 290 289 289 289 289 288 288 288 288 288 288 288 288 288 288 288 287 287 287 287 287 287 287 287 287 287 287 287 287
320 319 322 325 321 318 323 322 321 321 317 317 321 321 321 319 318 318 317 316 318 317 318 317 317 321 318 311 307 306 304 305 305 306 307 305 302 302 302 301 301 300 299 298 296 294 292 292 292 291 291 291 291 290 290 290 290 290 290 290 290 289 289 289 288 288 288 288 288 288 288 288 288 287 287 287 287 287 287 287 287 287 287 287 287 287
319 320 321 322 319 317 320 319 317 316 314 315 317 318 322 323 320 319 318 316 316 316 315 315 315 317 314 309 308 306 305 306 306 307 308 304 301 302 302 301 300 299 298 298 296 293 292 292 292 292 292 291 291 291 290 291 291 290 290 290 290 290 289 289 289 288 288 288 287 288 287 287 288 287 287 287 287 287 287 287 287 286 286 286 287 287
319 320 320 320 319 317 316 314 315 317 316 316 316 315 317 318 317 317 315 314 315 315 315 315 315 314 311 309 308 307 306 306 306 306 306 304 302 302 301 299 298 298 297 297 295 292 292 293 292 292 292 292 291 291 290 290 290 290 290 290 290 290 289 289 289 288 288 288 287 287 287 287 287 287 287 287 286 286 286 286 286 286 286 286 286 286
317 317 317 318 317 317 314 312 314 317 317 315 314 314 313 312 312 313 313 313 313 313 314 314 314 313 312 309 307 307 307 308 307 305 304 305 303 301 299 299 298 298 298 298 297 294 293 292 292 292 292 291 291 290 290 290 290 290 289 289 289 289 289 289 289 288 288 287 287 287 287 287 287 287 286 286 286 286 286 286 286 286 286 286 286 286
315 315 316 315 314 313 313 312 312 314 314 311 311 311 310 309 309 309 310 311 311 312 312 312 312 312 311 310 308 307 307 307 306 304 303 303 302 300 299 299 299 299 298 297 298 297 294 292 292 292 291 291 291 291 290 290 290 289 289 289 289 289 289 289 289 288 288 287 287 287 287 287 287 286 286 286 286 286 286 286 286 286 286 285 285 285
314 313 314 314 313 311 311 311 311 310 311 310 310 309 309 308 307 307 309 310 310 310 309 309 309 309 308 308 307 306 307 307 306 304 302 301 301 300 300 300 299 299 297 296 297 296 294 292 291 291 292 291 291 291 290 290 290 289 289 289 289 289 289 289 289 289 288 288 288 288 288 287 287 286 286 286 285 285 285 285 285 285 285 285 285 285
312 311 313 312 312 311 310 310 309 308 309 309 309 308 308 308 307 306 307 308 309 309 308 308 308 307 306 305 303 304 306 307 305 304 303 302 300 300 300 300 299 297 296 296 296 295 296 295 291 290 292 292 291 291 290 290 290 290 290 290 290 290 289 289 289 289 289 288 288 288 288 287 287 286 286 285 285 285 285 285 285 285 285 285 284 284
312 311 311 310 310 311 309 308 307 306 306 306 306 306 306 305 305 305 305 306 307 307 307 306 305 305 304 303 303 304 304 303 302 302 302 301 299 299 299 298 298 297 296 297 297 297 298 296 291 291 292 293 292 292 291 290 290 290 290 290 290 290 289 289 289 289 288 288 287 287 287 286 286 286 285 285 285 284 284 284 284 284 284 284 284 284
311 309 309 308 308 308 307 306 305 305 305 304 304 304 304 303 303 303 303 304 305 305 305 304 304 304 303 302 302 302 302 301 299 298 299 299 299 299 298 298 298 298 298 299 299 298 296 292 288 289 291 291 291 291 290 290 290 290 290 290 290 289 289 289 288 288 287 287 286 285 285 285 285 284 284 284 284 283 283 283 283 284 283 283 283 283
308 307 305 305 306 307 304 302 303 305 304 303 302 302 302 302 302 302 302 302 302 303 303 303 303 302 301 302 301 300 300 299 297 296 296 297 298 298 297 296 297 296 296 296 295 294 293 290 287 288 289 289 289 289 289 289 289 289 289 289 289 288 288 287 287 286 285 285 284 284 283 283 283 283 283 283 283 283 283 283 283 283 283 282 282 282
307 306 304 303 305 305 302 300 301 302 301 301 301 299 299 300 300 300 301 301 301 301 301 301 301 300 300 301 300 298 297 296 295 295 294 294 295 295 294 294 295 294 294 293 292 293 294 290 287 288 289 288 288 288 288 287 287 287 287 287 287 286 286 286 285 284 284 283 283 282 282 281 281 281 282 282 282 282 282 282 282 281 281 281 281 281
307 305 305 304 303 302 301 300 300 300 300 300 299 298 298 298 298 299 300 300 300 300 300 300 299 299 301 302 300 296 294 294 294 294 294 293 293 294 293 294 296 295 293 292 293 293 292 290 288 288 288 287 287 286 286 286 286 285 285 284 284 284 284 284 283 282 282 281 281 280 280 280 280 280 280 280 280 280 280 279 279 279 279 279 279 280
304 304 305 304 303 301 300 299 299 300 299 298 298 299 300 299 299 300 299 299 299 299 299 299 299 301 302 301 300 297 295 294 293 292 293 293 292 293 295 295 295 294 292 292 293 291 289 288 288 288 287 286 286 285 285 284 284 283 283 283 283 283 282 281 281 280 280 279 279 278 278 278 278 278 278 278 278 277 277 277 277 277 277 277 277 278
303 303 302 302 302 300 299 299 299 298 298 298 299 301 300 298 299 299 298 298 298 298 298 297 299 302 302 300 299 298 295 293 292 292 293 294 293 293 294 294 293 292 292 293 292 289 288 288 288 287 286 286 285 284 283 283 282 282 282 282 281 280 279 278 278 278 277 277 277 276 276 276 276 276 276 275 275 275 274 275 275 275 275 275 275 275
302 302 302 302 301 300 299 299 298 297 297 297 297 297 297 296 297 296 296 296 296 296 296 296 297 299 300 298 296 294 293 293 293 294 294 294 294 294 294 294 294 293 292 292 290 288 288 287 286 285 285 284 283 283 282 281 281 280 280 279 279 278 277 276 276 276 275 275 275 275 275 274 274 274 273 273 272 272 272 272 272 272 272 271 271 271
300 300 301 300 300 300 299 299 298 297 297 297 296 296 296 296 296 296 296 297 297 297 297 298 299 297 295 294 292 292 294 294 294 295 293 291 293 293 292 292 293 292 290 289 289 288 287 286 285 284 283 282 282 281 280 279 279 278 278 277 276 275 274 274 274 274 274 274 274 273 273 272 272 271 271 270 270 270 270 269 269 268 268 268 268 268
298 299 300 299 298 299 298 298 298 297 296 296 295 295 295 296 297 298 298 298 299 298 297 298 299 295 293 292 291 293 296 294 294 294 292 290 292 292 290 289 290 290 289 288 288 286 285 284 284 283 282 281 280 279 278 278 277 276 275 274 274 273 273 273 273 273 272 272 271 271 270 270 269 269 268 268 268 267 267 266 266 266 266 266 266 266
295 297 299 298 298 298 298 298 297 296 297 297 296 295 294 295 297 298 297 298 298 297 295 296 296 294 293 292 292 293 294 293 293 294 293 292 292 290 289 289 288 288 288 288 286 285 284 283 282 281 280 279 278 277 276 276 275 274 273 272 272 272 272 272 271 271 270 270 269 269 268 268 267 267 266 266 266 265 265 265 265 265 265 264 264 264
294 295 297 298 298 297 297 298 297 297 297 296 295 294 294 295 297 296 295 296 298 297 294 295 295 294 293 293 292 292 293 293 293 293 294 293 290 288 288 288 287 287 287 285 284 283 282 282 281 280 279 277 276 275 275 274 273 272 271 271 271 271 270 270 270 269 268 268 267 267 266 266 265 265 265 265 264 264 264 264 264 264 263 263 263 263
293 294 296 296 297 297 297 297 296 296 296 294 294 295 295 295 296 295 294 297 300 297 294 294 294 294 293 293 293 292 293 294 293 292 292 291 289 287 288 288 287 286 285 283 282 282 281 280 279 278 276 276 275 274 273 272 271 270 270 270 269 269 269 269 268 267 267 266 266 265 265 265 264 264 264 264 263 263 263 263 263 263 263 263 263 263
293 293 294 295 295 294 295 296 295 295 295 295 294 294 293 293 294 295 296 298 300 298 294 293 293 293 293 293 293 293 293 293 292 291 291 291 290 288 286 285 285 283 282 281 281 280 280 279 277 276 275 274 273 272 272 271 270 269 269 268 268 268 268 267 266 266 265 265 265 264 264 264 264 263 263 263 263 263 262 262 262 262 262 262 262 262
293 292 293 294 294 294 293 293 293 293 293 293 293 293 292 293 297 298 297 295 296 297 295 293 292 292 292 293 293 293 293 292 291 291 291 291 291 288 284 283 283 282 281 280 279 278 278 277 275 275 274 273 272 271 270 269 269 268 267 267 268 267 266 265 265 264 264 264 264 264 263 263 263 263 263 263 262 262 262 262 262 262 262 262 262 262
293 294 296 295 294 295 294 293 294 296 295 293 293 295 294 295 297 299 297 294 294 294 293 292 292 292 292 293 294 293 292 291 291 291 291 291 290 287 283 282 282 281 280 279 278 277 276 276 274 273 272 272 271 270 269 268 268 267 266 267 267 265 265 264 264 264 264 263 263 263 263 263 263 263 262 262 262 262 262 262 262 262 262 262 262 262
294 295 297 296 293 294 294 295 296 297 295 293 293 295 295 295 295 296 295 294 294 294 292 292 293 292 291 291 292 291 291 290 290 291 290 289 289 286 282 280 280 279 278 277 276 276 275 274 273 272 271 270 270 269 268 267 266 266 266 266 265 264 264 264 264 263 263 263 263 263 263 263 262 262 262 262 262 262 262 262 262 261 261 261 262 262
293 293 293 292 292 292 293 294 294 294 293 293 292 293 293 294 294 293 292 292 293 294 292 291 292 292 291 291 290 290 291 291 291 291 289 288 287 283 280 279 278 277 277 276 275 274 274 273 272 271 270 269 268 267 267 266 266 265 265 265 264 264 264 263 263 263 263 263 263 263 262 262 262 262 262 262 262 262 262 261 261 261 261 261 261 261
293 292 291 291 292 292 292 293 293 292 293 293 292 291 292 292 292 292 292 291 291 292 291 291 291 291 291 290 290 290 291 291 291 290 288 287 285 281 278 277 277 276 275 275 273 272 272 272 271 270 268 267 267 266 265 265 265 265 264 264 264 264 263 263 263 263 263 262 262 262 262 262 262 262 262 262 262 262 261 261 261 261 261 261 261 261
293 293 292 291 291 291 291 292 292 292 293 292 291 291 291 291 291 291 291 291 291 290 290 289 289 290 291 290 290 291 291 290 290 289 287 286 284 280 277 276 276 274 273 273 272 271 271 270 269 268 267 266 266 265 264 264 265 264 264 264 264 263 263 263 263 262 262 262 262 262 262 262 262 262 262 262 262 261 261 261 261 261 261 261 261 261
292 292 292 292 291 291 291 291 290 291 291 290 290 290 290 291 291 291 290 290 290 290 290 289 287 287 289 289 290 290 290 290 289 288 286 285 282 278 275 275 274 273 272 271 271 270 269 268 267 266 266 265 265 264 263 263 264 264 264 264 263 263 263 262 262 262 262 262 262 262 262 262 262 262 262 261 261 261 261 261 261 261 262 262 262 263
291 291 291 291 291 291 291 291 291 290 290 290 291 290 290 290 290 290 290 290 289 289 291 290 288 285 284 285 286 288 290 289 286 284 283 282 279 276 274 274 273 272 271 270 269 268 268 267 266 265 264 264 264 263 262 263 264 264 264 263 263 263 262 262 262 262 262 262 262 262 262 262 262 262 261 261 261 261 261 261 261 262 263 263 263 264
291 291 291 291 291 291 291 291 291 290 290 290 290 290 291 290 290 290 290 290 289 289 290 290 289 287 285 283 281 283 288 287 282 280 281 279 275 274 273 272 271 270 269 268 268 267 266 265 265 264 263 263 263 262 262 263 264 264 264 263 263 262 262 262 262 262 262 262 262 262 262 262 261 261 261 261 261 261 261 261 261 262 262 263 264 265
Wind_Speed
3 4 2 5 7 9 11 11 11 9 7 6 5 4 5 5 6 5 6 6 3 2 6 5 4 6 8 10 14 15 9 7 8 4 5 7 9 8 9 9 9 10 8 12 21 26 28 30 31 31 31 32 33 34 34 35 33 29 26 24 23 20 16 15 12 8 6 6 5 4 2 1 1 2 4 6 7 9 11 13 15 18 19 20 22 24
4 4 7 11 11 11 9 8 8 7 6 5 5 4 5 5 6 5 6 7 3 2 5 4 5 7 9 11 16 15 9 8 5 4 8 9 10 8 9 10 9 8 7 12 19 24 29 30 30 30 31 32 32 32 33 33 32 30 28 26 25 22 21 20 16 12 10 9 8 6 5 4 3 3 4 5 6 7 8 9 11 13 15 17 19 21
2 5 12 12 9 7 7 5 6 7 6 5 4 2 4 4 3 6 6 4 3 1 5 6 6 8 9 12 17 12 5 5 5 8 8 9 11 8 9 8 8 9 9 11 14 19 26 27 28 29 29 31 31 31 32 32 31 30 28 27 25 23 22 22 19 16 14 12 10 9 8 5 3 2 2 3 5 7 9 10 11 11 12 14 15 18
3 7 12 10 6 5 7 7 7 6 5 5 4 2 5 4 1 4 5 4 4 2 3 4 6 5 7 12 11 6 6 7 9 12 11 10 11 10 9 8 8 10 10 11 12 15 20 24 26 26 27 29 31 32 32 31 30 29 28 27 26 24 23 21 20 17 15 13 12 12 10 8 7 6 4 3 4 6 8 9 11 12 13 13 14 15
7 7 6 5 5 6 7 8 7 5 4 4 4 5 5 4 4 6 4 4 5 5 2 3 5 4 5 11 7 4 7 7 8 11 11 9 9 10 10 10 10 10 9 10 11 11 15 19 22 24 25 27 30 31 31 30 29 29 28 27 26 25 24 22 20 17 15 15 14 13 12 12 11 10 10 9 9 7 7 7 8 10 11 13 14 15
10 6 3 5 6 5 6 7 6 5 3 4 4 8 8 7 7 5 3 4 4 5 4 4 4 6 5 7 7 2 6 7 6 8 10 8 8 9 10 9 9 9 9 9 10 10 13 17 20 23 25 27 29 28 28 29 30 29 29 28 28 27 25 23 20 18 16 17 17 17 17 17 16 15 15 14 14 12 7 6 5 6 8 10 12 13
6 2 3 5 6 4 4 5 5 6 4 3 5 6 6 6 4 2 2 3 1 2 4 2 1 6 4 5 8 3 8 6 5 8 9 7 7 8 8 7 7 8 8 8 10 10 12 16 18 22 24 26 26 26 27 29 31 31 31 31 30 29 27 24 22 19 18 19 19 18 19 19 19 18 17 15 15 14 10 6 4 4 5 7 8 10
4 2 4 4 3 4 4 5 5 6 6 4 5 3 5 3 2 2 2 1 3 2 5 2 4 5 4 6 7 5 10 6 6 7 7 7 8 8 8 7 7 7 7 8 8 9 12 15 18 20 22 23 24 25 28 29 30 31 32 33 33 32 30 27 25 23 22 22 21 20 19 19 18 18 17 15 14 14 13 10 7 6 6 7 7 8
2 3 3 4 4 3 5 6 5 7 5 6 5 4 5 4 4 3 2 2 2 2 5 5 5 3 5 6 3 7 9 5 6 6 6 7 7 8 8 7 7 6 7 8 8 8 11 14 17 19 20 23 24 26 28 28 29 31 32 34 34 34 33 30 28 27 26 25 23 22 21 20 19 18 16 15 14 14 13 13 12 9 8 8 9 8
1 4 7 7 4 5 6 4 3 7 4 4 2 4 4 2 2 1 1 1 2 2 4 6 5 3 5 6 1 5 5 5 6 5 5 6 6 7 7 6 5 5 6 7 8 9 12 14 16 18 22 24 25 26 27 29 30 31 32 33 34 33 32 32 31 30 29 27 26 26 24 23 22 20 18 17 17 17 15 15 15 14 12 10 10 10
2 1 2 4 4 5 4 1 2 4 4 2 5 5 6 5 3 3 1 3 3 2 6 8 8 6 3 5 2 2 4 9 9 6 6 6 6 6 5 5 5 5 5 6 6 9 12 14 16 19 23 24 25 26 28 29 29 30 31 31 32 31 30 30 31 31 30 29 29 28 26 25 24 22 22 21 22 21 19 18 18 16 15 14 13 11
2 0 2 3 3 4 5 2 2 3 2 5 5 4 4 5 4 4 4 3 1 5 7 7 7 7 5 4 2 3 1 8 10 9 10 8 7 5 5 4 4 4 5 5 5 7 10 13 16 21 23 23 24 26 26 27 28 29 29 29 31 30 28 28 28 29 30 29 29 28 27 26 25 24 24 24 24 23 22 21 19 18 16 15 15 15
2 4 4 3 2 4 5 1 3 5 4 5 4 4 2 4 3 2 2 0 2 6 6 3 2 4 6 3 3 6 6 6 6 8 10 10 8 6 5 4 3 4 4 5 5 5 7 10 14 18 20 21 23 23 24 26 27 27 27 28 28 27 26 27 27 28 28 28 28 27 27 26 25 25 25 25 24 23 22 22 20 20 20 18 18 17
3 5 2 1 3 3 7 5 2 2 1 5 4 4 3 1 0 3 3 2 3 5 4 2 1 1 5 2 4 5 5 6 9 9 8 8 8 6 5 4 3 4 4 5 5 5 6 9 12 15 17 19 20 22 24 25 25 26 26 26 26 25 25 26 27 27 28 28 27 26 26 26 26 26 26 25 25 24 24 23 22 22 21 20 20 19
2 6 3 5 3 3 7 5 4 4 3 5 5 5 5 4 3 4 3 3 4 4 4 3 1 2 3 0 3 4 5 7 9 8 7 7 6 5 5 4 4 4 4 4 4 5 7 10 12 13 15 17 19 22 24 24 24 24 24 24 25 24 24 25 25 26 26 26 26 26 26 26 26 25 25 25 24 24 24 24 24 24 23 23 22 20
4 6 5 3 1 5 6 3 3 6 1 2 4 4 2 4 4 2 3 4 3 3 4 2 2 2 2 2 3 4 5 7 7 6 7 6 5 4 4 4 3 4 3 4 4 5 7 10 11 12 14 16 17 20 21 22 22 22 23 23 23 23 23 24 24 25 25 25 26 26 26 26 25 25 25 25 24 24 24 24 24 24 24 24 23 23
3 5 3 1 2 3 5 2 2 4 1 0 3 3 4 4 5 1 4 2 1 3 4 3 2 1 2 1 2 4 5 6 5 5 6 5 5 5 4 4 3 3 3 4 4 4 6 8 10 11 13 13 14 15 17 17 18 19 21 21 22 22 22 23 23 23 24 25 25 26 26 25 25 25 25 24 24 23 23 23 23 23 23 23 23 23
3 4 4 2 1 3 4 3 1 1 4 4 2 4 3 1 3 2 1 2 1 4 4 3 5 4 2 2 1 3 4 5 4 4 5 4 4 4 4 3 3 3 4 4 4 4 6 8 10 11 11 11 11 11 12 13 13 15 17 18 19 19 19 20 20 21 22 22 24 24 24 24 24 24 23 23 23 23 23 24 24 24 25 24 24 24
2 2 6 2 3 3 1 3 3 4 2 4 4 3 1 1 2 0 2 2 3 4 4 5 7 5 4 4 5 6 7 7 6 5 5 4 4 4 4 4 4 3 3 3 4 4 5 8 9 10 10 10 9 9 10 10 10 12 13 14 15 15 16 17 17 18 18 19 20 20 20 21 21 22 22 22 22 22 23 24 24 25 26 26 26 26
1 2 5 3 1 1 3 3 2 3 3 3 1 2 1 3 3 2 2 3 3 4 4 5 5 4 4 5 8 10 10 10 9 7 6 6 6 5 5 5 4 4 4 3 3 3 5 7 7 7 8 8 8 7 7 7 7 8 9 9 10 11 12 13 14 14 14 14 14 15 16 17 19 20 20 21 21 22 22 23 24 25 26 27 27 27
2 2 4 4 4 1 1 1 5 4 1 2 2 1 2 1 1 2 2 2 3 3 3 4 5 4 4 2 7 11 10 10 9 8 6 7 7 6 5 5 5 4 4 3 3 3 4 4 3 3 3 4 5 5 5 5 4 4 5 6 7 7 9 10 10 10 9 9 9 8 10 11 14 16 17 18 19 20 21 23 24 26 26 27 27 28
1 1 3 3 4 1 4 5 5 6 5 4 2 3 3 2 1 2 4 2 3 3 3 4 5 5 4 1 4 9 9 8 8 8 7 8 7 7 5 5 5 5 4 4 3 3 4 4 2 2 2 2 2 3 3 3 3 3 3 4 4 6 7 8 9 10 9 9 9 8 8 8 9 11 13 15 15 17 19 21 23 25 26 27 28 28
2 3 1 3 4 4 7 6 1 4 5 5 3 2 3 3 3 3 4 3 1 2 2 2 2 2 2 1 3 6 7 7 8 8 7 6 6 6 5 5 5 5 5 5 4 5 6 5 4 3 3 2 2 1 0 1 1 0 0 1 2 3 4 5 6 7 8 9 9 10 10 10 10 11 14 15 16 17 18 19 21 22 23 24 26 27
3 3 1 3 5 4 5 4 4 4 3 3 1 1 2 3 3 4 4 2 1 3 3 3 4 3 2 2 3 5 5 6 6 6 6 5 5 6 6 5 5 5 5 5 5 6 8 7 6 5 5 4 4 2 2 2 1 1 1 1 1 1 3 3 3 4 6 6 7 7 9 9 10 12 15 16 17 19 20 20 21 22 22 23 24 25
1 1 2 0 3 5 6 5 5 5 3 2 1 2 2 3 2 2 1 1 1 4 5 5 6 3 1 2 2 4 4 4 4 5 5 6 6 6 5 5 5 5 5 5 5 6 7 8 7 7 7 6 5 4 3 2 2 1 1 1 2 3 4 5 5 6 7 7 7 8 9 9 10 12 15 17 20 22 23 23 24 24 24 25 26 27
2 2 3 3 4 5 4 3 2 2 2 1 2 3 1 2 2 1 1 1 2 2 2 3 5 3 3 4 3 3 3 4 5 5 4 4 5 6 5 5 5 5 5 6 6 5 6 7 9 9 8 8 7 6 4 3 2 2 3 5 5 6 8 10 10 10 11 12 12 13 14 14 14 15 17 19 21 23 24 25 26 26 27 28 30 30
3 1 2 5 7 7 5 5 4 3 1 3 5 7 7 6 3 2 2 3 2 1 3 6 7 6 8 10 5 3 4 6 6 5 5 5 5 6 6 5 5 5 5 5 5 5 5 6 9 11 10 9 8 5 3 3 4 6 8 9 9 9 11 12 13 14 15 17 18 19 21 21 21 22 23 24 25 25 25 25 25 25 27 29 29 30
4 1 3 6 6 7 5 4 1 3 1 5 6 9 11 10 6 4 5 4 2 2 7 10 8 6 9 13 9 3 5 6 6 6 7 7 6 6 5 5 5 4 4 4 4 5 5 6 8 11 10 8 7 6 6 7 8 10 11 12 12 12 12 13 15 16 17 18 19 21 23 25 27 29 30 30 30 30 29 28 27 27 28 29 29 30
5 3 4 4 3 7 5 3 3 1 2 5 6 9 12 13 12 9 8 7 5 6 10 11 10 9 11 13 9 5 6 7 7 7 5 5 7 6 6 6 5 5 4 4 5 5 6 6 7 11 12 10 10 10 10 11 11 12 14 15 16 15 14 13 14 13 13 14 15 18 21 24 28 31 34 35 35 35 35 34 33 33 33 33 32 32
3 2 2 3 3 7 5 3 3 3 4 6 8 11 13 15 13 10 9 10 9 9 12 10 10 13 13 9 6 5 6 5 3 2 3 6 7 6 6 6 6 5 5 5 5 5 4 3 4 6 7 6 4 5 7 8 10 11 13 13 13 12 10 10 10 10 11 14 17 20 22 25 28 30 32 34 35 36 37 38 38 38 37 37 37 37
2 1 1 3 1 6 3 1 2 4 5 6 10 14 15 14 12 11 11 9 7 9 11 8 9 12 10 5 3 2 2 3 4 4 4 5 6 6 6 6 6 5 5 4 3 2 2 4 6 8 9 9 10 11 11 12 13 13 13 11 9 9 9 10 11 13 17 20 22 24 25 26 28 29 30 31 32 34 36 37 39 39 39 39 39 39
2 1 1 4 2 5 2 4 1 5 5 7 14 19 18 13 10 10 9 7 8 9 8 7 8 10 8 4 2 1 4 5 5 5 5 4 5 6 6 5 5 5 5 4 4 5 5 6 9 11 11 10 10 10 10 11 12 11 10 9 10 11 12 14 17 20 23 24 25 26 26 26 26 27 29 29 30 32 33 34 36 38 39 40 39 38
3 3 1 2 1 6 2 4 3 1 3 8 12 13 14 11 9 9 8 8 10 8 6 7 8 8 6 5 5 2 2 4 4 4 4 3 3 4 5 5 5 5 5 5 5 5 6 7 9 10 8 8 8 8 8 8 8 8 8 10 12 14 17 19 22 24 25 26 26 25 24 24 25 26 28 28 29 30 31 32 34 36 37 38 38 39
4 5 3 3 3 4 3 4 4 2 6 8 4 4 6 7 7 8 9 10 10 7 5 5 5 5 5 6 7 6 4 4 4 2 3 4 3 4 4 4 5 5 5 6 5 6 8 10 9 8 7 7 7 7 6 6 6 7 9 12 14 17 20 22 23 23 24 25 25 23 23 24 25 26 27 27 27 29 31 32 34 34 35 35 36 38
4 4 3 3 2 2 3 5 2 7 9 5 1 4 6 6 7 7 9 10 9 7 6 5 4 6 6 6 6 6 5 4 4 3 4 4 5 5 4 4 4 5 5 5 5 6 9 10 8 6 6 5 5 5 6 7 8 9 12 15 18 20 21 21 22 23 23 24 25 24 24 24 25 26 26 28 29 30 31 32 32 32 32 32 34 36
6 4 2 2 2 1 2 4 6 7 5 7 7 4 3 3 4 4 7 10 9 8 7 7 7 8 7 5 5 5 3 2 1 2 4 4 4 5 5 5 6 6 6 6 7 9 11 9 6 5 5 3 2 3 5 7 9 12 15 17 19 21 20 21 22 23 23 23 23 23 23 24 26 28 29 30 30 30 31 31 31 32 33 34 37 38
7 5 3 2 3 3 4 6 6 5 9 13 11 4 3 4 5 4 4 8 8 5 5 5 5 6 6 5 4 3 3 4 4 3 3 1 3 5 5 5 6 7 7 8 10 12 11 8 6 6 5 3 2 3 5 8 11 15 18 19 20 20 20 21 21 22 22 22 22 23 24 25 27 29 31 30 30 31 32 32 34 35 35 35 37 38
5 6 5 4 4 4 4 5 5 5 8 10 6 2 2 3 5 6 2 4 7 4 4 5 5 5 6 6 4 2 4 3 2 4 3 3 2 3 4 3 5 7 8 11 13 12 9 7 7 7 5 3 2 4 7 10 14 17 19 20 20 20 20 21 21 21 21 21 23 24 25 26 27 29 30 31 31 33 34 35 36 37 35 34 35 38
3 3 5 4 4 5 5 5 5 6 7 5 4 3 3 3 6 6 3 4 6 5 4 6 6 6 7 6 5 4 4 1 4 5 4 5 5 4 4 3 2 6 10 11 11 9 8 7 7 5 3 3 4 6 10 13 16 18 19 19 19 19 20 20 19 19 21 23 24 25 26 26 28 29 30 31 32 33 34 36 36 36 35 35 36 38
3 2 3 5 6 7 8 6 5 5 5 4 5 5 5 3 6 6 3 6 6 5 5 7 8 8 8 6 5 4 3 4 5 5 5 6 5 4 4 3 3 10 11 9 9 9 8 6 4 3 4 4 5 9 13 16 17 18 18 18 18 19 19 19 19 20 23 24 25 25 26 27 28 29 29 31 33 34 34 34 35 36 36 37 37 38
2 1 3 6 7 10 9 6 4 4 4 5 6 7 5 2 6 2 6 6 5 6 5 7 9 8 7 6 5 4 4 6 6 5 4 4 3 3 2 4 8 11 11 10 10 8 6 4 3 4 3 4 7 11 15 17 18 18 18 17 17 18 18 19 21 22 23 24 25 26 27 27 27 29 30 31 32 34 34 34 35 36 36 37 38 38
2 1 2 4 5 6 6 5 5 5 4 6 6 4 3 3 1 5 7 4 5 7 7 7 8 8 7 7 6 6 6 6 6 5 4 4 4 3 5 9 11 11 10 9 7 5 4 3 3 2 4 7 11 14 16 17 18 18 17 17 18 18 19 20 22 23 24 25 26 27 28 28 28 29 30 31 31 33 35 35 34 35 35 36 37 37
5 3 2 4 4 2 3 5 5 5 4 7 6 1 1 4 5 5 4 3 6 7 7 7 7 7 7 7 7 7 7 7 6 5 5 5 4 4 8 11 11 10 9 7 5 3 2 1 2 4 7 10 13 15 16 17 18 18 18 19 19 19 20 21 22 24 25 26 27 28 28 29 29 29 30 31 31 32 34 35 34 34 34 34 35 36
3 4 3 4 3 4 4 6 5 5 5 7 8 4 5 7 6 5 5 5 5 5 6 6 7 8 8 7 7 7 7 7 6 5 5 5 4 5 8 9 10 10 8 6 4 1 1 3 4 7 9 12 14 15 16 16 17 18 19 20 20 20 22 23 23 24 26 27 28 28 29 29 30 30 30 31 31 31 32 33 34 33 33 32 33 33
5 6 5 4 4 5 5 5 5 4 5 6 7 8 8 8 6 6 7 5 5 5 5 5 7 9 8 8 8 7 7 6 6 6 5 5 4 6 7 8 9 10 8 6 3 1 3 5 8 10 12 13 14 15 15 15 16 19 20 20 20 21 23 24 25 26 27 28 28 29 30 30 30 30 30 29 29 30 31 32 32 31 32 32 32 30
6 6 2 1 2 1 2 4 4 3 4 6 8 8 8 7 7 6 6 5 6 6 6 6 8 9 8 8 8 7 7 6 6 5 5 5 5 6 8 9 9 8 7 5 3 3 5 8 11 14 15 15 14 14 15 15 16 18 20 21 21 22 23 25 26 27 28 29 29 29 30 31 30 30 29 29 29 29 30 30 30 30 31 31 31 30
6 6 4 3 3 2 2 4 6 6 8 8 8 7 6 7 7 6 6 6 7 7 7 8 9 9 8 8 9 8 7 6 6 6 5 5 6 6 7 8 8 7 6 4 2 4 7 10 13 15 16 16 14 14 16 16 16 17 19 20 21 23 24 25 26 28 29 30 30 30 30 29 30 30 30 30 30 29 29 29 28 29 30 31 31 31
4 4 5 6 7 5 6 7 8 10 11 9 6 5 6 7 8 8 7 7 7 8 8 8 8 8 8 8 9 8 7 6 7 7 6 5 5 5 7 8 8 7 4 3 3 6 8 11 13 15 16 16 16 16 17 17 17 18 19 21 22 23 24 25 26 27 29 30 30 30 29 28 29 30 30 30 30 28 29 30 29 29 31 32 32 32
2 3 4 4 4 3 5 9 11 10 11 10 8 7 7 8 8 8 8 8 8 8 7 7 8 8 9 9 8 7 7 7 7 7 6 5 5 6 8 8 7 6 4 3 5 7 10 11 13 14 15 17 18 17 17 18 19 19 20 21 21 22 24 26 27 27 28 29 29 29 28 28 29 29 30 30 29 29 30 30 29 29 31 33 32 30
4 7 5 4 3 4 7 10 10 7 7 10 10 10 10 9 9 9 10 9 8 8 8 8 7 6 7 8 8 8 7 7 6 6 6 5 6 7 8 8 6 4 4 5 7 9 10 11 12 13 16 18 18 18 18 19 20 20 20 20 21 22 24 26 27 27 27 27 27 28 28 28 28 29 29 29 29 29 30 31 30 28 28 31 33 32
9 11 8 5 7 9 11 12 9 6 7 9 9 9 9 8 8 10 10 10 10 9 9 9 8 7 6 7 9 9 8 6 7 8 6 5 7 8 7 6 5 4 5 7 9 10 10 11 12 14 17 18 18 18 20 21 21 21 20 20 21 22 23 25 26 26 27 27 27 28 28 28 29 29 28 28 28 27 28 30 32 32 30 29 30 32
Wind_Direction
131 110 156 205 215 218 218 213 218 231 230 234 253 260 254 249 265 273 273 284 337 347 270 264 294 295 292 297 289 286 304 319 301 331 60 80 84 82 77 72 65 62 55 46 44 43 42 42 43 44 45 50 53 54 56 59 60 62 64 64 62 59 56 54 56 60 55 51 51 54 56 11 281 255 245 236 234 236 240 243 243 243 241 240 239 239
112 150 216 218 218 226 228 223 229 246 248 242 241 252 265 253 262 278 279 288 352 41 271 304 348 306 294 293 284 288 316 322 315 91 101 92 86 79 76 71 65 67 53 48 45 41 42 42 42 44 44 46 48 50 54 57 59 61 64 65 64 64 63 62 62 63 58 51 44 40 35 12 335 309 295 282 270 265 263 259 255 253 251 247 245 243
139 220 237 229 223 245 263 251 240 251 256 256 249 254 278 270 288 297 293 307 10 18 277 311 323 293 290 280 279 296 345 9 37 87 93 85 86 76 71 71 66 64 51 47 44 40 42 41 42 43 43 45 46 48 52 55 58 60 61 63 64 63 62 62 64 63 59 56 55 53 54 51 45 35 341 303 288 281 278 276 274 271 268 263 257 251
181 234 240 235 221 237 266 263 253 261 266 259 255 260 273 279 319 284 295 327 338 287 262 299 296 283 280 270 281 335 64 79 66 77 77 77 85 78 73 71 63 63 56 50 47 42 42 41 41 43 44 46 48 48 49 52 55 57 60 64 65 64 62 62 63 62 58 57 56 54 56 58 55 53 40 1 318 295 283 279 278 278 278 276 271 264
221 230 222 230 217 202 233 259 253 246 267 263 226 217 244 259 230 231 275 328 330 322 336 9 323 289 249 258 279 48 84 81 72 81 77 71 79 80 75 66 60 62 61 58 54 44 44 44 42 43 46 49 50 49 49 50 53 55 59 64 67 67 66 65 64 63 62 61 58 54 53 52 50 47 38 26 11 346 310 297 295 288 285 285 282 277
243 242 197 239 254 215 208 247 234 194 242 289 236 217 221 229 235 247 330 9 14 336 323 47 6 291 250 255 266 136 92 62 58 72 76 71 71 75 70 64 62 59 57 58 57 51 48 48 46 44 45 48 50 50 51 54 55 56 58 61 64 66 66 67 67 68 69 65 59 55 52 48 44 40 34 28 24 16 350 316 312 306 301 298 294 291
251 240 149 204 233 215 204 250 232 167 152 277 251 213 197 196 208 243 18 29 45 255 278 72 102 274 269 255 259 154 98 80 71 68 73 71 63 69 69 64 63 58 57 53 48 49 50 49 46 43 42 45 48 50 54 56 57 58 58 59 60 61 62 63 65 68 69 67 62 59 56 49 42 36 31 27 28 30 25 3 332 324 325 319 313 308
218 126 77 120 161 182 206 253 234 160 137 231 254 125 113 129 159 184 118 170 228 250 305 277 181 256 279 247 244 125 103 95 88 77 73 75 70 72 68 61 60 58 62 61 48 39 43 50 52 48 45 46 49 51 54 55 56 58 59 59 59 59 59 59 62 64 64 64 63 61 59 53 46 39 32 29 28 30 31 27 12 342 328 326 326 323
207 160 178 148 136 184 206 234 206 147 149 236 233 114 102 125 153 167 140 212 258 344 308 258 186 231 274 262 240 121 123 134 123 105 87 82 77 76 72 64 60 56 60 67 65 45 37 45 52 55 53 50 51 53 55 56 56 58 59 61 61 58 56 57 59 61 61 61 61 59 56 52 48 43 39 35 31 29 29 32 28 10 342 324 319 320
220 188 190 147 148 208 216 240 171 146 188 237 167 93 61 69 109 122 151 153 6 349 254 232 186 197 269 283 300 120 147 166 143 114 96 88 80 76 73 66 56 54 55 58 67 58 46 46 51 57 57 54 52 54 56 58 58 59 60 62 61 57 56 56 58 59 59 58 58 55 52 50 46 42 40 37 33 29 25 25 25 22 15 358 336 322
256 243 190 146 180 199 174 137 98 140 177 122 77 51 22 8 16 33 80 89 52 285 244 223 201 190 265 287 244 172 181 161 146 130 122 103 84 79 69 64 54 51 56 51 57 56 52 53 54 56 56 53 53 54 56 57 57 59 60 62 62 59 58 58 58 59 58 57 56 54 52 50 45 41 38 35 31 27 24 21 18 17 19 18 12 359
328 16 228 234 207 147 111 102 17 26 92 91 74 62 18 339 9 29 8 49 102 252 258 239 204 184 223 267 297 335 24 137 142 147 143 123 102 94 79 74 65 59 62 56 54 50 48 48 47 50 51 50 51 52 53 54 56 57 58 61 61 59 58 59 60 61 59 58 57 55 53 51 47 44 41 37 32 27 24 22 18 16 15 14 17 16
288 223 233 273 243 151 124 119 330 356 44 88 86 83 39 319 0 7 312 124 207 247 258 243 157 177 226 251 17 12 25 71 102 122 129 123 120 117 104 97 81 72 71 63 58 49 45 42 41 46 48 48 48 48 50 52 55 56 57 59 60 57 57 58 60 62 61 60 58 56 55 53 50 48 45 41 37 32 28 25 20 18 14 10 8 6
297 290 262 208 291 187 147 158 237 284 122 137 143 138 151 185 206 261 254 245 267 266 262 265 79 239 258 309 34 39 46 67 85 97 108 118 124 129 127 118 91 74 66 63 62 53 49 45 44 48 48 49 48 46 50 52 53 55 55 57 58 57 57 58 59 61 62 62 60 59 58 55 53 51 48 45 41 38 36 33 30 26 21 15 9 2
245 299 244 182 262 183 169 189 176 150 153 174 165 144 149 168 195 236 232 223 259 275 285 299 299 211 223 0 44 60 71 78 90 101 105 107 117 125 118 106 91 78 65 63 66 59 54 51 50 51 50 50 49 48 49 50 52 54 53 54 54 54 55 57 58 58 59 60 60 60 59 57 55 53 51 50 46 42 39 37 36 34 30 26 19 12
203 261 252 204 164 147 174 242 123 110 95 231 145 118 168 194 185 237 245 204 205 289 292 275 240 207 148 93 63 75 77 76 84 98 106 108 114 114 108 104 100 90 76 70 68 60 55 56 55 53 51 51 50 50 49 47 50 52 52 53 53 52 52 53 54 54 55 55 56 56 55 54 53 50 49 47 45 43 40 38 36 35 33 30 26 22
203 256 283 15 31 152 171 199 130 138 195 279 112 171 222 185 138 150 282 261 124 266 259 217 243 299 88 87 73 86 81 81 90 105 116 126 124 120 127 128 121 110 100 91 87 84 72 63 58 55 55 53 52 52 49 47 48 50 51 52 52 51 50 49 49 49 49 50 50 49 49 48 47 46 44 42 40 38 36 34 33 32 31 30 27 24
182 259 278 162 167 246 182 141 13 122 138 125 164 221 233 64 78 106 257 306 286 249 258 243 244 242 205 236 157 123 118 117 140 141 126 131 134 143 161 159 160 154 143 133 118 109 89 70 59 59 60 59 59 58 55 54 53 55 55 52 52 50 48 47 47 48 47 46 45 43 42 40 39 39 38 36 34 30 28 26 24 22 22 23 22 20
153 246 284 227 164 257 23 80 353 339 62 129 181 218 127 108 288 293 146 223 242 249 274 265 250 242 227 214 178 173 171 161 171 166 153 168 175 176 180 187 197 182 165 151 134 126 96 76 64 64 65 66 70 67 65 67 63 62 60 56 55 53 51 50 49 47 45 43 41 38 35 34 32 30 29 26 24 22 20 17 15 14 13 12 11 10
102 166 275 308 147 245 24 60 197 285 354 48 39 343 55 165 194 211 183 181 212 240 262 258 249 252 247 208 172 178 178 169 173 175 179 189 190 192 187 190 201 191 178 155 133 126 98 87 78 74 70 69 72 69 71 76 71 67 64 61 62 58 56 55 51 49 45 41 36 31 27 25 23 22 19 16 13 11 10 8 7 6 5 4 3 1
52 168 241 305 334 27 34 214 182 177 135 52 34 317 286 245 200 254 239 158 159 208 242 250 250 252 264 216 164 174 176 172 171 168 184 201 199 197 192 190 197 191 178 157 134 127 112 108 108 93 78 71 71 72 80 86 82 79 69 60 59 53 52 53 51 52 51 45 40 31 24 18 16 16 13 9 6 3 2 -0 359 359 357 356 354 353
70 188 201 281 307 219 228 235 166 138 135 139 174 210 204 204 221 273 264 211 159 184 197 222 257 268 281 303 151 163 165 168 171 170 187 204 198 193 197 195 193 190 183 174 162 157 150 149 157 146 135 111 87 77 84 88 80 76 66 54 48 44 43 43 43 42 38 36 34 27 20 9 4 4 2 1 358 355 354 353 353 352 350 348 346 345
111 110 126 254 256 228 241 256 151 134 158 161 197 215 162 155 149 193 243 243 213 226 190 184 239 261 275 286 139 153 163 170 177 181 190 198 188 185 195 193 185 185 182 178 174 172 176 184 192 197 201 196 182 151 153 201 214 243 0 28 17 21 26 28 32 32 27 25 23 18 13 4 356 353 352 352 350 346 345 343 344 343 341 339 338 336
71 91 94 274 287 296 289 309 15 35 101 130 270 318 123 150 157 172 210 225 233 244 244 262 258 243 283 329 99 126 146 161 182 191 179 175 180 183 186 181 174 173 171 172 176 181 190 200 205 211 213 207 199 192 184 189 197 220 240 302 322 320 346 351 352 359 3 5 5 5 3 358 352 346 345 346 344 342 338 335 334 334 332 329 328 327
82 127 119 127 299 314 325 334 357 6 36 106 262 279 131 138 121 96 117 135 221 230 225 249 257 243 270 323 60 92 123 159 208 212 173 166 180 184 183 180 174 171 176 183 188 193 199 203 209 212 209 200 191 186 184 186 193 206 257 326 337 342 350 352 345 341 345 349 350 349 348 347 342 337 338 338 337 336 334 330 329 328 327 325 323 322
137 169 133 131 212 247 268 261 242 353 2 349 288 296 266 221 239 304 327 233 231 227 200 228 251 267 274 248 194 137 159 209 243 238 206 192 186 179 179 181 178 178 183 184 184 190 193 197 202 198 190 186 185 187 194 207 245 300 327 337 343 348 350 348 340 333 334 336 338 339 340 339 335 331 330 328 328 328 326 324 323 322 322 322 321 320
110 196 174 163 203 230 231 217 185 99 19 282 292 296 286 273 246 189 206 225 219 250 257 243 241 260 273 265 247 178 192 226 238 228 218 212 193 181 181 182 178 178 179 171 165 169 172 184 194 192 189 191 195 204 228 265 297 309 313 316 317 319 325 330 326 321 322 322 324 327 331 332 331 328 326 323 322 321 318 317 316 313 314 315 315 314
103 267 221 172 210 244 231 218 197 76 187 241 269 282 280 280 269 220 221 232 215 266 263 256 253 254 261 268 274 238 212 236 249 244 230 207 188 180 172 167 166 170 177 176 171 177 186 192 200 204 208 211 219 236 254 268 279 285 287 290 292 293 299 309 313 312 312 313 316 321 324 325 325 323 322 321 320 319 318 317 314 311 310 310 309 308
116 245 235 153 225 263 259 271 315 344 241 238 253 265 270 270 264 252 245 235 216 237 256 262 269 267 261 268 277 254 233 241 247 253 238 181 164 158 153 159 173 186 201 219 222 219 221 229 231 232 237 241 246 254 263 272 280 283 282 282 283 283 288 299 307 309 313 317 321 323 322 320 318 317 316 316 317 318 318 317 316 314 312 311 310 309
111 249 254 140 236 270 275 291 312 289 265 266 262 257 258 261 260 255 249 237 221 234 252 262 270 268 265 271 276 256 236 218 198 180 128 140 154 156 160 175 192 208 218 227 238 243 248 267 278 275 275 282 301 326 335 338 338 333 324 313 303 301 308 316 318 322 326 326 325 324 321 318 314 311 310 310 312 313 314 314 314 313 312 312 311 311
84 197 264 91 30 284 281 78 351 287 269 275 273 263 257 259 262 260 253 244 234 240 248 256 266 266 270 287 291 256 168 115 95 86 106 140 155 151 163 186 194 206 218 212 197 162 103 66 53 53 52 50 41 30 20 9 2 356 353 349 342 337 337 332 327 327 326 325 324 322 319 315 310 307 306 306 307 309 309 310 310 310 310 310 311 311
81 170 312 73 64 283 283 99 264 283 292 282 270 264 258 253 252 254 246 230 226 236 247 252 253 260 275 294 291 67 87 100 105 99 104 125 144 147 161 190 198 203 206 184 140 115 102 92 85 81 76 61 40 25 15 3 355 355 356 352 345 338 330 327 327 326 324 322 320 318 315 312 309 307 306 307 308 308 308 308 307 307 308 309 310 310
136 144 155 116 183 278 276 126 159 242 305 277 261 256 255 249 241 246 248 238 230 226 231 239 243 248 255 250 240 214 109 123 130 131 133 135 159 182 185 197 212 212 193 167 138 119 119 120 109 98 84 60 39 28 20 5 356 -0 356 340 333 330 326 324 324 321 318 315 314 314 314 313 311 308 307 308 309 308 308 307 306 306 307 307 307 306
163 157 172 187 211 255 219 128 111 186 250 260 238 184 212 221 219 231 244 245 236 220 218 242 254 241 219 210 210 203 187 171 158 169 175 157 185 236 240 229 220 204 181 164 146 132 130 125 113 96 73 48 32 23 12 358 349 345 337 328 326 326 325 322 319 316 314 313 314 316 316 314 312 310 308 309 309 308 306 306 305 304 304 304 303 302
181 171 179 190 182 193 150 111 146 230 237 259 217 161 179 187 197 224 251 255 245 239 243 252 245 220 213 213 202 187 187 187 169 185 219 212 209 224 239 232 204 178 171 168 156 144 136 126 112 86 61 39 18 2 349 341 337 329 324 324 323 323 323 321 317 315 314 313 314 316 317 317 314 312 310 310 309 308 306 305 303 302 303 303 301 299
176 175 178 181 175 166 151 176 223 246 282 302 281 234 193 203 212 238 272 266 250 235 227 232 236 225 216 214 196 169 161 150 120 238 251 245 218 210 205 193 184 181 186 186 172 154 141 128 109 92 86 74 23 355 344 336 333 326 323 324 324 323 324 322 317 316 315 314 315 317 318 318 314 311 311 311 310 308 306 305 304 302 302 301 299 297
171 170 173 194 208 207 207 225 251 307 311 287 275 250 208 231 219 209 255 265 255 219 176 187 228 222 191 171 169 146 95 56 14 314 272 216 172 177 172 170 189 207 199 177 160 147 135 118 105 111 115 106 56 7 346 331 327 325 325 326 327 325 323 320 316 315 315 315 316 316 316 315 313 311 312 312 310 308 307 306 304 303 303 302 300 298
179 186 180 192 229 215 204 240 264 281 272 264 260 221 204 199 166 147 146 278 272 251 187 183 201 189 158 153 163 113 62 47 319 280 256 250 212 157 160 197 224 216 186 158 146 136 123 114 118 122 119 99 52 354 335 326 324 326 327 327 326 324 320 317 315 316 315 314 314 314 313 313 312 311 311 310 309 308 307 306 306 305 305 304 300 299
165 194 181 190 233 223 209 229 236 241 252 243 215 220 227 177 134 102 53 296 265 252 213 189 189 178 165 167 162 111 82 148 259 259 234 243 249 195 195 275 261 176 163 148 139 133 126 128 127 114 88 53 11 340 330 325 325 327 326 325 324 320 316 315 315 314 312 311 312 312 312 312 311 311 310 309 308 307 307 306 306 306 305 303 301 299
129 135 186 204 223 223 223 237 240 242 248 219 198 213 222 173 102 78 325 270 246 232 203 174 177 184 178 170 154 132 152 193 234 251 220 214 230 214 219 261 182 156 148 134 131 133 131 131 120 79 49 19 350 332 326 326 327 326 324 323 320 315 313 312 311 310 310 311 312 312 312 312 312 311 310 308 307 307 306 305 305 305 304 303 301 300
103 135 213 216 224 226 226 235 254 251 227 197 199 208 203 110 74 123 241 241 211 217 209 172 176 186 176 166 163 180 212 209 215 242 227 196 221 245 214 183 161 151 145 137 136 135 127 116 84 55 30 349 331 325 326 328 327 324 323 320 315 311 311 309 308 310 312 312 312 312 313 313 312 311 309 308 307 306 305 305 304 303 303 303 301 300
137 173 240 221 221 231 228 232 262 271 222 181 191 208 168 113 144 221 228 207 177 199 207 189 190 190 178 182 191 204 230 231 222 239 235 204 214 220 168 153 144 140 142 141 137 131 124 107 68 22 342 329 326 326 328 327 324 323 321 316 312 311 311 310 312 314 314 314 313 313 313 313 312 311 310 309 308 306 304 305 305 303 303 302 300 299
162 162 223 213 191 185 217 225 242 263 222 162 147 139 171 188 209 211 206 204 194 196 201 201 203 197 189 200 214 218 231 238 231 230 225 219 218 185 163 159 153 149 149 146 140 135 121 75 15 340 329 326 325 326 328 326 323 321 316 313 314 315 314 314 316 317 315 314 314 313 313 313 313 312 311 309 308 306 305 305 305 304 303 301 300 299
173 162 190 217 183 152 193 221 214 221 215 165 146 176 216 212 201 169 170 208 217 204 200 202 214 216 203 201 217 224 224 228 226 220 222 232 219 170 157 159 157 154 153 152 155 172 323 329 331 329 325 324 324 324 325 325 322 316 312 313 318 319 318 319 319 317 315 314 313 313 314 314 314 313 311 310 310 307 305 306 306 305 304 302 300 299
213 191 190 222 205 166 186 222 214 205 208 184 180 202 216 222 220 189 181 201 213 206 200 199 217 226 212 199 211 220 217 213 211 206 211 220 204 168 157 156 155 156 158 160 171 255 309 317 320 321 321 321 322 322 323 324 320 312 311 317 322 322 321 321 319 316 315 314 314 315 316 315 314 313 312 312 311 309 306 306 306 304 304 303 301 299
232 219 209 220 195 172 231 230 215 222 230 210 208 216 218 226 231 208 192 206 216 209 201 200 215 224 213 200 205 214 215 209 208 213 208 193 179 165 155 151 150 156 163 168 191 275 304 314 315 316 318 319 320 320 320 321 318 312 314 320 324 324 323 320 318 316 316 316 316 316 317 316 314 314 314 314 313 310 306 304 303 303 302 302 300 299
257 232 225 223 219 255 267 216 197 215 230 223 221 231 235 239 240 221 202 214 226 223 213 210 217 220 209 198 198 207 213 206 206 219 205 177 177 175 162 159 161 165 175 187 232 287 305 313 314 315 316 315 317 319 318 319 320 318 319 323 326 325 323 320 318 317 317 317 317 317 317 316 314 314 316 315 313 309 306 304 303 302 300 299 298 298
251 216 214 229 233 232 236 234 227 233 242 239 225 224 230 234 236 232 226 230 239 240 231 221 217 213 206 199 195 197 207 208 208 215 204 179 181 181 172 174 174 173 183 221 267 292 307 313 313 313 311 310 314 317 316 319 324 324 324 326 327 326 324 321 319 318 316 316 317 316 316 315 314 315 315 313 311 308 306 306 305 302 299 298 297 295
216 215 200 197 216 229 238 243 243 251 263 263 245 228 228 228 230 237 241 240 243 246 241 229 220 208 197 194 187 183 201 216 213 204 196 186 181 181 180 181 183 190 212 253 281 298 309 312 310 308 306 307 313 317 318 321 324 325 326 328 329 329 325 322 319 317 315 315 316 315 315 314 314 315 313 310 308 307 306 305 303 299 298 298 297 294
213 233 216 162 191 232 229 228 227 230 252 256 246 235 229 224 228 238 244 244 239 233 223 216 219 217 204 198 186 178 198 220 210 188 186 188 182 181 183 185 194 217 245 275 293 302 308 309 307 305 304 308 315 318 319 321 323 325 328 331 332 331 326 322 319 316 314 316 315 314 314 314 313 314 311 307 306 307 307 307 304 299 296 296 298 298
221 227 218 200 222 236 235 232 220 210 233 247 245 239 230 218 218 230 237 238 232 223 209 198 199 208 216 214 199 187 195 209 193 179 182 186 181 180 185 195 212 240 271 289 300 307 308 306 306 305 307 312 316 317 319 320 322 326 331 334 334 332 326 321 318 314 313 315 315 314 313 313 313 312 309 306 306 306 307 308 307 306 303 300 300 302